Time,TemperatureF,DewpointF,PressureIn,WindDirection,WindDirectionDegrees,WindSpeedMPH,WindSpeedGustMPH,Humidity,HourlyPrecipIn,Conditions,Clouds,dailyrainin,SoftwareType,DateUTC
2013-08-07 00:03:00,57.9,53.1,30.05,WNW,298,5.8,5.8,84,0.00,CLR,,0.00,WeatherDisplay:10.37,2013-08-07 07:03:00,
2013-08-07 00:08:00,57.9,53.4,30.05,NW,314,2.3,2.3,85,0.00,CLR,,0.00,WeatherDisplay:10.37,2013-08-07 07:08:00,
2013-08-07 00:13:00,57.9,53.4,30.05,WNW,297,6.9,6.9,85,0.00,CLR,,0.00,WeatherDisplay:10.37,2013-08-07 07:13:00,
2013-08-07 00:18:00,57.9,53.4,30.05,NW,311,3.5,3.5,85,0.00,CLR,,0.00,WeatherDisplay:10.37,2013-08-07 07:18:00,
2013-08-07 00:23:00,57.9,53.4,30.05,NW,305,3.5,3.5,85,0.00,CLR,,0.00,WeatherDisplay:10.37,2013-08-07 07:23:00,
2013-08-07 00:28:00,57.9,53.1,30.05,WNW,290,3.5,3.5,84,0.00,CLR,,0.00,WeatherDisplay:10.37,2013-08-07 07:28:00,
2013-08-07 00:33:00,58.0,53.2,30.05,SW,235,4.6,4.6,84,0.00,CLR,,0.00,WeatherDisplay:10.37,2013-08-07 07:33:00,
2013-08-07 00:38:00,58.0,53.2,30.05,WNW,292,4.6,4.6,84,0.00,CLR,,0.00,WeatherDisplay:10.37,2013-08-07 07:38:00,
2013-08-07 00:43:00,57.9,53.4,30.05,NW,307,3.5,3.5,85,0.00,CLR,,0.00,WeatherDisplay:10.37,2013-08-07 07:43:00,
2013-08-07 00:48:00,57.9,53.4,30.05,WSW,242,3.5,3.5,85,0.00,CLR,,0.00,WeatherDisplay:10.37,2013-08-07 07:48:00,
2013-08-07 00:53:00,58.0,53.5,30.05,NW,308,2.3,2.3,85,0.00,CLR,,0.00,WeatherDisplay:10.37,2013-08-07 07:53:00,
2013-08-07 00:58:00,58.0,53.5,30.05,WSW,245,2.3,2.3,85,0.00,CLR,,0.00,WeatherDisplay:10.37,2013-08-07 07:58:00,
2013-08-07 01:03:00,58.0,53.2,30.05,SW,235,1.2,1.2,84,0.00,CLR,,0.00,WeatherDisplay:10.37,2013-08-07 08:03:00,
2013-08-07 01:08:00,58.1,53.3,30.06,WNW,292,1.2,1.8,84,0.00,CLR,,0.00,WeatherDisplay:10.37,2013-08-07 08:08:00,
2013-08-07 01:13:00,58.0,53.2,30.06,West,274,4.6,4.6,84,0.00,CLR,,0.00,WeatherDisplay:10.37,2013-08-07 08:13:00,
2013-08-07 01:18:00,58.0,53.2,30.06,NNW,329,5.0,5.0,84,0.00,CLR,,0.00,WeatherDisplay:10.37,2013-08-07 08:18:00,
2013-08-07 01:23:00,58.0,53.2,30.06,NNW,334,5.8,5.8,84,0.00,CLR,,0.00,WeatherDisplay:10.37,2013-08-07 08:23:00,
2013-08-07 01:28:00,57.9,53.1,30.06,WSW,248,4.6,4.6,84,0.00,CLR,,0.00,WeatherDisplay:10.37,2013-08-07 08:28:00,
2013-08-07 01:33:00,57.9,53.4,30.06,West,260,4.6,4.6,85,0.00,CLR,,0.00,WeatherDisplay:10.37,2013-08-07 08:33:00,
2013-08-07 01:39:00,57.9,53.4,30.06,NW,308,4.6,4.6,85,0.00,CLR,,0.00,WeatherDisplay:10.37,2013-08-07 08:39:00,
2013-08-07 01:44:00,57.9,53.4,30.06,WNW,302,5.8,5.8,85,0.00,CLR,,0.00,WeatherDisplay:10.37,2013-08-07 08:44:00,
2013-08-07 01:49:00,57.9,53.1,30.06,NW,310,5.8,5.8,84,0.00,CLR,,0.00,WeatherDisplay:10.37,2013-08-07 08:49:00,
2013-08-07 01:54:00,57.8,53.0,30.05,West,281,2.3,2.9,84,0.00,CLR,,0.00,WeatherDisplay:10.37,2013-08-07 08:54:00,
2013-08-07 01:59:00,57.8,53.0,30.05,WNW,287,3.5,3.5,84,0.00,CLR,,0.00,WeatherDisplay:10.37,2013-08-07 08:59:00,
2013-08-07 02:04:00,57.8,53.0,30.05,NNW,330,7.0,7.0,84,0.00,CLR,,0.00,WeatherDisplay:10.37,2013-08-07 09:04:00,
2013-08-07 02:09:00,57.7,52.9,30.05,West,270,3.5,3.5,84,0.00,CLR,,0.00,WeatherDisplay:10.37,2013-08-07 09:09:00,
2013-08-07 02:14:00,57.7,52.9,30.06,NW,314,2.3,2.3,84,0.00,CLR,,0.00,WeatherDisplay:10.37,2013-08-07 09:14:00,
2013-08-07 02:19:00,57.7,52.9,30.06,WNW,298,2.3,2.3,84,0.00,CLR,,0.00,WeatherDisplay:10.37,2013-08-07 09:19:00,
2013-08-07 02:24:00,57.7,52.9,30.06,West,275,2.3,2.3,84,0.00,CLR,,0.00,WeatherDisplay:10.37,2013-08-07 09:24:00,
2013-08-07 02:29:00,57.7,52.9,30.06,WSW,255,2.3,2.3,84,0.00,CLR,,0.00,WeatherDisplay:10.37,2013-08-07 09:29:00,
2013-08-07 02:34:00,57.7,52.9,30.06,West,259,3.5,3.5,84,0.00,CLR,,0.00,WeatherDisplay:10.37,2013-08-07 09:34:00,
2013-08-07 02:39:00,57.8,53.3,30.06,West,280,2.3,2.3,85,0.00,CLR,,0.00,WeatherDisplay:10.37,2013-08-07 09:39:00,
2013-08-07 02:44:00,57.8,53.3,30.06,WNW,290,1.2,1.2,85,0.00,CLR,,0.00,WeatherDisplay:10.37,2013-08-07 09:44:00,
2013-08-07 02:49:00,57.8,53.0,30.06,West,263,1.2,1.2,84,0.00,CLR,,0.00,WeatherDisplay:10.37,2013-08-07 09:49:00,
2013-08-07 02:54:00,57.8,53.0,30.06,West,271,2.3,2.3,84,0.00,CLR,,0.00,WeatherDisplay:10.37,2013-08-07 09:54:00,
2013-08-07 02:59:00,57.9,53.1,30.06,WNW,290,3.5,3.5,84,0.00,CLR,,0.00,WeatherDisplay:10.37,2013-08-07 09:59:00,
2013-08-07 03:04:00,57.9,53.1,30.06,West,267,2.3,2.3,84,0.00,CLR,,0.00,WeatherDisplay:10.37,2013-08-07 10:04:00,
2013-08-07 03:09:00,57.9,53.1,30.06,WSW,245,3.5,3.5,84,0.00,CLR,,0.00,WeatherDisplay:10.37,2013-08-07 10:09:00,
2013-08-07 03:14:00,57.9,53.1,30.06,SW,229,5.0,5.0,84,0.00,CLR,,0.00,WeatherDisplay:10.37,2013-08-07 10:14:00,
2013-08-07 03:19:00,57.8,53.0,30.06,West,269,3.5,3.5,84,0.00,CLR,,0.00,WeatherDisplay:10.37,2013-08-07 10:19:00,
2013-08-07 03:24:00,57.7,52.9,30.06,WNW,302,5.8,5.8,84,0.00,CLR,,0.00,WeatherDisplay:10.37,2013-08-07 10:24:00,
2013-08-07 03:29:00,57.6,52.8,30.06,SSW,204,2.3,2.3,84,0.00,CLR,,0.00,WeatherDisplay:10.37,2013-08-07 10:29:00,
2013-08-07 03:34:00,57.5,53.0,30.06,WNW,295,3.5,3.5,85,0.00,CLR,,0.00,WeatherDisplay:10.37,2013-08-07 10:34:00,
2013-08-07 03:39:00,57.4,52.9,30.06,NW,307,9.2,9.2,85,0.00,CLR,,0.00,WeatherDisplay:10.37,2013-08-07 10:39:00,
2013-08-07 03:44:00,57.4,52.9,30.06,NNW,333,5.8,5.8,85,0.00,CLR,,0.00,WeatherDisplay:10.37,2013-08-07 10:44:00,
2013-08-07 03:49:00,57.3,52.5,30.05,NW,311,4.6,4.6,84,0.00,CLR,,0.00,WeatherDisplay:10.37,2013-08-07 10:49:00,
2013-08-07 03:54:00,57.2,52.4,30.06,WNW,298,5.8,5.8,84,0.00,CLR,,0.00,WeatherDisplay:10.37,2013-08-07 10:54:00,
2013-08-07 03:59:00,57.2,52.7,30.06,West,278,3.5,3.5,85,0.00,CLR,,0.00,WeatherDisplay:10.37,2013-08-07 10:59:00,
2013-08-07 04:04:00,57.3,52.5,30.06,WSW,257,3.5,3.5,84,0.00,CLR,,0.00,WeatherDisplay:10.37,2013-08-07 11:04:00,
2013-08-07 04:09:00,57.3,52.5,30.06,WNW,295,3.5,3.5,84,0.00,CLR,,0.00,WeatherDisplay:10.37,2013-08-07 11:09:00,
2013-08-07 04:14:00,57.4,52.9,30.06,West,269,3.5,3.5,85,0.00,CLR,,0.00,WeatherDisplay:10.37,2013-08-07 11:14:00,
2013-08-07 04:19:00,57.4,52.9,30.06,WNW,297,2.3,2.3,85,0.00,CLR,,0.00,WeatherDisplay:10.37,2013-08-07 11:19:00,
2013-08-07 04:24:00,57.3,52.8,30.06,WNW,289,3.5,3.5,85,0.00,CLR,,0.00,WeatherDisplay:10.37,2013-08-07 11:24:00,
2013-08-07 04:29:00,57.3,52.8,30.06,WSW,255,3.5,3.5,85,0.00,CLR,,0.00,WeatherDisplay:10.37,2013-08-07 11:29:00,
2013-08-07 04:34:00,57.3,52.8,30.06,WSW,253,3.5,3.5,85,0.00,CLR,,0.00,WeatherDisplay:10.37,2013-08-07 11:34:00,
2013-08-07 04:39:00,57.2,52.4,30.06,West,281,5.8,5.8,84,0.00,CLR,,0.00,WeatherDisplay:10.37,2013-08-07 11:39:00,
2013-08-07 04:44:00,57.2,52.4,30.06,WSW,240,3.5,3.5,84,0.00,CLR,,0.00,WeatherDisplay:10.37,2013-08-07 11:44:00,
2013-08-07 04:49:00,57.2,52.4,30.06,West,274,4.6,4.6,84,0.00,CLR,,0.00,WeatherDisplay:10.37,2013-08-07 11:49:00,
2013-08-07 04:54:00,57.3,52.5,30.06,North,351,1.2,1.2,84,0.00,CLR,,0.00,WeatherDisplay:10.37,2013-08-07 11:54:00,
2013-08-07 04:59:00,57.2,52.4,30.06,NW,307,3.5,3.5,84,0.00,CLR,,0.00,WeatherDisplay:10.37,2013-08-07 11:59:00,
2013-08-07 05:04:00,57.2,52.1,30.06,West,270,4.6,4.6,83,0.00,CLR,,0.00,WeatherDisplay:10.37,2013-08-07 12:04:00,
2013-08-07 05:09:00,57.3,52.2,30.06,SW,222,2.3,2.3,83,0.00,CLR,,0.00,WeatherDisplay:10.37,2013-08-07 12:09:00,
2013-08-07 05:14:00,57.4,52.3,30.06,NW,311,5.0,5.0,83,0.00,CLR,,0.00,WeatherDisplay:10.37,2013-08-07 12:14:00,
2013-08-07 05:19:00,57.3,52.2,30.06,WSW,250,3.5,3.5,83,0.00,CLR,,0.00,WeatherDisplay:10.37,2013-08-07 12:19:00,
2013-08-07 05:24:00,57.2,52.1,30.06,NW,304,1.2,1.2,83,0.00,CLR,,0.00,WeatherDisplay:10.37,2013-08-07 12:24:00,
2013-08-07 05:29:00,57.1,52.0,30.06,NW,304,5.8,5.8,83,0.00,CLR,,0.00,WeatherDisplay:10.37,2013-08-07 12:29:00,
2013-08-07 05:34:00,57.0,52.2,30.06,WNW,298,3.5,3.5,84,0.00,CLR,,0.00,WeatherDisplay:10.37,2013-08-07 12:34:00,
2013-08-07 05:39:00,56.8,51.7,30.06,West,275,2.3,2.3,83,0.00,CLR,,0.00,WeatherDisplay:10.37,2013-08-07 12:39:00,
2013-08-07 05:44:00,56.8,51.7,30.06,West,267,2.3,2.3,83,0.00,CLR,,0.00,WeatherDisplay:10.37,2013-08-07 12:44:00,
2013-08-07 05:49:00,56.7,51.6,30.06,West,262,3.5,3.5,83,0.00,CLR,,0.00,WeatherDisplay:10.37,2013-08-07 12:49:00,
2013-08-07 05:54:00,56.7,51.6,30.06,WNW,283,3.0,3.0,83,0.00,CLR,,0.00,WeatherDisplay:10.37,2013-08-07 12:54:00,
2013-08-07 05:59:00,56.7,51.6,30.06,West,260,3.5,3.5,83,0.00,CLR,,0.00,WeatherDisplay:10.37,2013-08-07 12:59:00,
2013-08-07 06:04:00,56.7,51.6,30.06,WNW,297,3.5,3.5,83,0.00,CLR,,0.00,WeatherDisplay:10.37,2013-08-07 13:04:00,
2013-08-07 06:09:00,56.7,51.6,30.06,WNW,289,6.9,6.9,83,0.00,CLR,,0.00,WeatherDisplay:10.37,2013-08-07 13:09:00,
2013-08-07 06:14:00,56.7,51.6,30.06,WNW,301,2.3,2.3,83,0.00,CLR,,0.00,WeatherDisplay:10.37,2013-08-07 13:14:00,
2013-08-07 06:19:00,56.7,51.6,30.06,North,358,2.3,2.3,83,0.00,CLR,,0.00,WeatherDisplay:10.37,2013-08-07 13:19:00,
2013-08-07 06:24:00,56.6,51.8,30.06,WSW,255,1.2,1.2,84,0.00,CLR,,0.00,WeatherDisplay:10.37,2013-08-07 13:24:00,
2013-08-07 06:29:00,56.6,51.8,30.06,WSW,243,5.8,5.8,84,0.00,CLR,,0.00,WeatherDisplay:10.37,2013-08-07 13:29:00,
2013-08-07 06:34:00,56.7,51.9,30.06,WSW,238,3.5,3.5,84,0.00,CLR,,0.00,WeatherDisplay:10.37,2013-08-07 13:34:00,
2013-08-07 06:39:00,56.8,52.0,30.06,NW,324,2.0,2.0,84,0.00,CLR,,0.00,WeatherDisplay:10.37,2013-08-07 13:39:00,
2013-08-07 06:44:00,56.9,51.8,30.06,WNW,297,1.2,1.2,83,0.00,CLR,,0.00,WeatherDisplay:10.37,2013-08-07 13:44:00,
2013-08-07 06:49:00,57.0,51.9,30.06,West,274,0.0,0.0,83,0.00,CLR,,0.00,WeatherDisplay:10.37,2013-08-07 13:49:00,
2013-08-07 06:54:00,57.0,51.9,30.06,WNW,287,3.5,3.5,83,0.00,CLR,,0.00,WeatherDisplay:10.37,2013-08-07 13:54:00,
2013-08-07 06:59:00,57.1,52.0,30.06,NW,308,5.8,5.8,83,0.00,CLR,,0.00,WeatherDisplay:10.37,2013-08-07 13:59:00,
2013-08-07 07:04:00,57.2,52.1,30.06,WNW,292,8.1,8.1,83,0.00,CLR,,0.00,WeatherDisplay:10.37,2013-08-07 14:04:00,
2013-08-07 07:09:00,57.2,52.1,30.06,NW,325,3.5,3.5,83,0.00,CLR,,0.00,WeatherDisplay:10.37,2013-08-07 14:09:00,
2013-08-07 07:14:00,57.4,52.3,30.06,WNW,285,4.0,4.0,83,0.00,CLR,,0.00,WeatherDisplay:10.37,2013-08-07 14:14:00,
2013-08-07 07:19:00,57.5,52.0,30.06,WNW,295,3.5,3.5,82,0.00,CLR,,0.00,WeatherDisplay:10.37,2013-08-07 14:19:00,
2013-08-07 07:24:00,57.8,52.3,30.07,NNW,329,4.0,4.0,82,0.00,CLR,,0.00,WeatherDisplay:10.37,2013-08-07 14:24:00,
2013-08-07 07:29:00,57.9,52.4,30.07,WSW,248,1.2,0.0,82,0.00,CLR,,0.00,WeatherDisplay:10.37,2013-08-07 14:29:00,
2013-08-07 07:34:00,58.0,52.5,30.07,NW,322,5.8,5.8,82,0.00,CLR,,0.00,WeatherDisplay:10.37,2013-08-07 14:34:00,
2013-08-07 07:39:00,57.9,52.1,30.07,NE,39,4.6,4.6,81,0.00,CLR,,0.00,WeatherDisplay:10.37,2013-08-07 14:39:00,
2013-08-07 07:44:00,58.0,52.5,30.07,WNW,301,3.5,3.5,82,0.00,CLR,,0.00,WeatherDisplay:10.37,2013-08-07 14:44:00,
2013-08-07 07:49:00,58.2,52.4,30.07,WNW,295,8.1,8.1,81,0.00,CLR,,0.00,WeatherDisplay:10.37,2013-08-07 14:49:00,
2013-08-07 07:54:00,58.3,52.5,30.07,WNW,300,5.8,5.8,81,0.00,CLR,,0.00,WeatherDisplay:10.37,2013-08-07 14:54:00,
2013-08-07 07:59:00,58.5,52.7,30.07,WNW,301,3.5,3.5,81,0.00,CLR,,0.00,WeatherDisplay:10.37,2013-08-07 14:59:00,
2013-08-07 08:04:00,58.7,52.9,30.08,NW,311,3.5,3.5,81,0.00,CLR,,0.00,WeatherDisplay:10.37,2013-08-07 15:04:00,
2013-08-07 08:09:00,58.8,52.6,30.07,WNW,285,2.3,2.3,80,0.00,CLR,,0.00,WeatherDisplay:10.37,2013-08-07 15:09:00,
2013-08-07 08:14:00,59.0,52.8,30.08,WSW,256,1.2,1.2,80,0.00,CLR,,0.00,WeatherDisplay:10.37,2013-08-07 15:14:00,
2013-08-07 08:19:00,59.0,52.8,30.08,NNE,15,2.3,2.3,80,0.00,CLR,,0.00,WeatherDisplay:10.37,2013-08-07 15:19:00,
2013-08-07 08:24:00,59.1,52.9,30.08,WNW,288,3.5,3.5,80,0.00,CLR,,0.00,WeatherDisplay:10.37,2013-08-07 15:24:00,
2013-08-07 08:29:00,59.4,53.2,30.08,WNW,283,3.5,3.5,80,0.00,CLR,,0.00,WeatherDisplay:10.37,2013-08-07 15:29:00,
2013-08-07 08:34:00,59.6,53.1,30.08,West,279,2.3,2.3,79,0.00,CLR,,0.00,WeatherDisplay:10.37,2013-08-07 15:34:00,
2013-08-07 08:39:00,59.8,52.9,30.08,ENE,61,3.5,3.5,78,0.00,CLR,,0.00,WeatherDisplay:10.37,2013-08-07 15:39:00,
2013-08-07 08:44:00,60.1,53.2,30.08,NNW,329,3.5,3.5,78,0.00,CLR,,0.00,WeatherDisplay:10.37,2013-08-07 15:44:00,
2013-08-07 08:49:00,59.9,53.0,30.08,NW,314,5.8,5.8,78,0.00,CLR,,0.00,WeatherDisplay:10.37,2013-08-07 15:49:00,
2013-08-07 08:54:00,60.0,53.1,30.09,NNW,340,4.0,4.0,78,0.00,CLR,,0.00,WeatherDisplay:10.37,2013-08-07 15:54:00,
2013-08-07 08:59:00,59.8,52.9,30.09,NNW,336,4.6,4.6,78,0.00,CLR,,0.00,WeatherDisplay:10.37,2013-08-07 15:59:00,
2013-08-07 09:04:00,59.9,53.0,30.09,NE,34,6.0,6.0,78,0.00,CLR,,0.00,WeatherDisplay:10.37,2013-08-07 16:04:00,
2013-08-07 09:09:00,59.9,53.0,30.09,NW,319,4.6,4.6,78,0.00,CLR,,0.00,WeatherDisplay:10.37,2013-08-07 16:09:00,
2013-08-07 09:14:00,60.4,53.9,30.09,NW,319,5.8,5.8,79,0.00,CLR,,0.00,WeatherDisplay:10.37,2013-08-07 16:14:00,
2013-08-07 09:19:00,60.5,53.3,30.09,NNE,28,5.0,5.0,77,0.00,CLR,,0.00,WeatherDisplay:10.37,2013-08-07 16:19:00,
2013-08-07 09:24:00,60.5,53.6,30.09,NE,56,6.9,6.9,78,0.00,CLR,,0.00,WeatherDisplay:10.37,2013-08-07 16:24:00,
2013-08-07 09:29:00,60.4,53.2,30.09,NE,48,4.0,4.0,77,0.00,CLR,,0.00,WeatherDisplay:10.37,2013-08-07 16:29:00,
2013-08-07 09:34:00,60.6,53.7,30.09,NW,307,3.5,3.5,78,0.00,CLR,,0.00,WeatherDisplay:10.37,2013-08-07 16:34:00,
2013-08-07 09:39:00,60.8,53.5,30.10,NW,319,5.8,5.8,77,0.00,CLR,,0.00,WeatherDisplay:10.37,2013-08-07 16:39:00,
2013-08-07 09:44:00,60.8,53.5,30.10,NE,37,5.8,5.8,77,0.00,CLR,,0.00,WeatherDisplay:10.37,2013-08-07 16:44:00,
2013-08-07 09:49:00,61.0,53.4,30.10,North,8,6.0,6.0,76,0.00,CLR,,0.00,WeatherDisplay:10.37,2013-08-07 16:49:00,
2013-08-07 09:54:00,61.0,53.4,30.10,ENE,60,5.0,5.0,76,0.00,CLR,,0.00,WeatherDisplay:10.37,2013-08-07 16:54:00,
2013-08-07 10:00:00,61.1,53.5,30.10,NNW,341,3.5,3.5,76,0.00,CLR,,0.00,WeatherDisplay:10.37,2013-08-07 17:00:00,
2013-08-07 10:05:00,61.5,53.9,30.10,NE,36,6.0,6.0,76,0.00,CLR,,0.00,WeatherDisplay:10.37,2013-08-07 17:05:00,
2013-08-07 10:10:00,61.7,54.1,30.10,NE,41,6.9,6.9,76,0.00,CLR,,0.00,WeatherDisplay:10.37,2013-08-07 17:10:00,
2013-08-07 10:15:00,61.8,53.8,30.10,NNE,16,8.1,8.1,75,0.00,CLR,,0.00,WeatherDisplay:10.37,2013-08-07 17:15:00,
2013-08-07 10:20:00,62.0,54.3,30.10,NNE,19,5.8,5.8,76,0.00,CLR,,0.00,WeatherDisplay:10.37,2013-08-07 17:20:00,
2013-08-07 10:25:00,62.4,54.4,30.10,NNE,32,4.6,4.6,75,0.00,CLR,,0.00,WeatherDisplay:10.37,2013-08-07 17:25:00,
2013-08-07 10:30:00,62.5,54.5,30.10,NNE,32,8.1,8.1,75,0.00,CLR,,0.00,WeatherDisplay:10.37,2013-08-07 17:30:00,
2013-08-07 10:35:00,62.9,54.9,30.10,North,5,6.9,6.9,75,0.00,CLR,,0.00,WeatherDisplay:10.37,2013-08-07 17:35:00,
2013-08-07 10:40:00,63.2,54.4,30.10,NNW,330,6.9,6.9,73,0.00,CLR,,0.00,WeatherDisplay:10.37,2013-08-07 17:40:00,
2013-08-07 10:45:00,63.6,55.2,30.10,NNE,20,6.0,6.0,74,0.00,CLR,,0.00,WeatherDisplay:10.37,2013-08-07 17:45:00,
2013-08-07 10:50:00,63.8,55.0,30.10,North,351,9.0,9.0,73,0.00,CLR,,0.00,WeatherDisplay:10.37,2013-08-07 17:50:00,
2013-08-07 10:55:00,63.8,55.4,30.10,NNW,333,3.5,4.1,74,0.00,CLR,,0.00,WeatherDisplay:10.37,2013-08-07 17:55:00,
2013-08-07 11:00:00,63.9,54.7,30.10,NNW,333,6.9,6.9,72,0.00,CLR,,0.00,WeatherDisplay:10.37,2013-08-07 18:00:00,
2013-08-07 11:05:00,64.4,55.9,30.10,NW,326,3.5,3.5,74,0.00,CLR,,0.00,WeatherDisplay:10.37,2013-08-07 18:05:00,
2013-08-07 11:10:00,65.0,55.8,30.10,North,360,6.0,6.0,72,0.00,CLR,,0.00,WeatherDisplay:10.37,2013-08-07 18:10:00,
2013-08-07 11:15:00,65.6,55.9,30.10,SW,225,4.6,4.6,71,0.00,CLR,,0.00,WeatherDisplay:10.37,2013-08-07 18:15:00,
2013-08-07 11:20:00,65.8,56.1,30.09,West,269,5.8,5.8,71,0.00,CLR,,0.00,WeatherDisplay:10.37,2013-08-07 18:20:00,
2013-08-07 11:25:00,66.3,55.8,30.09,WNW,282,3.5,3.5,69,0.00,CLR,,0.00,WeatherDisplay:10.37,2013-08-07 18:25:00,
2013-08-07 11:30:00,67.0,56.5,30.09,NW,321,3.0,3.0,69,0.00,CLR,,0.00,WeatherDisplay:10.37,2013-08-07 18:30:00,
2013-08-07 11:35:00,67.1,56.2,30.09,North,5,8.0,8.0,68,0.00,CLR,,0.00,WeatherDisplay:10.37,2013-08-07 18:35:00,
2013-08-07 11:40:00,67.4,56.5,30.09,NNW,343,5.8,5.8,68,0.00,CLR,,0.00,WeatherDisplay:10.37,2013-08-07 18:40:00,
2013-08-07 11:45:00,67.3,56.4,30.09,West,259,6.9,6.9,68,0.00,CLR,,0.00,WeatherDisplay:10.37,2013-08-07 18:45:00,
2013-08-07 11:50:00,67.3,56.0,30.09,NW,323,5.8,5.8,67,0.00,CLR,,0.00,WeatherDisplay:10.37,2013-08-07 18:50:00,
2013-08-07 11:55:00,67.3,56.4,30.09,NE,44,9.0,9.0,68,0.00,CLR,,0.00,WeatherDisplay:10.37,2013-08-07 18:55:00,
2013-08-07 12:00:00,67.9,56.9,30.09,WNW,301,3.5,3.5,68,0.00,CLR,,0.00,WeatherDisplay:10.37,2013-08-07 19:00:00,
2013-08-07 12:05:00,68.4,56.6,30.09,WNW,297,2.3,2.3,66,0.00,CLR,,0.00,WeatherDisplay:10.37,2013-08-07 19:05:00,
2013-08-07 12:10:00,68.2,55.6,30.09,WNW,290,8.1,8.1,64,0.00,CLR,,0.00,WeatherDisplay:10.37,2013-08-07 19:10:00,
2013-08-07 12:15:00,68.4,56.2,30.09,NW,319,5.8,5.8,65,0.00,CLR,,0.00,WeatherDisplay:10.37,2013-08-07 19:15:00,
2013-08-07 12:21:00,69.0,56.7,30.08,WNW,286,9.2,9.2,65,0.00,CLR,,0.00,WeatherDisplay:10.37,2013-08-07 19:21:00,
2013-08-07 12:26:00,68.9,56.2,30.08,NNW,333,4.6,4.6,64,0.00,CLR,,0.00,WeatherDisplay:10.37,2013-08-07 19:26:00,
2013-08-07 12:31:00,69.2,56.5,30.08,WNW,299,8.1,8.1,64,0.00,CLR,,0.00,WeatherDisplay:10.37,2013-08-07 19:31:00,
2013-08-07 12:36:00,69.6,56.4,30.08,NW,309,10.4,10.4,63,0.00,CLR,,0.00,WeatherDisplay:10.37,2013-08-07 19:36:00,
2013-08-07 12:41:00,69.5,56.8,30.08,WNW,301,6.9,6.9,64,0.00,CLR,,0.00,WeatherDisplay:10.37,2013-08-07 19:41:00,
2013-08-07 12:46:00,69.9,56.7,30.08,WNW,292,8.1,8.1,63,0.00,CLR,,0.00,WeatherDisplay:10.37,2013-08-07 19:46:00,
2013-08-07 12:51:00,69.7,56.5,30.08,NNW,340,8.1,8.1,63,0.00,CLR,,0.00,WeatherDisplay:10.37,2013-08-07 19:51:00,
2013-08-07 12:56:00,70.0,56.4,30.08,WSW,252,10.4,10.4,62,0.00,CLR,,0.00,WeatherDisplay:10.37,2013-08-07 19:56:00,
2013-08-07 13:01:00,71.2,57.1,30.07,WSW,256,3.5,3.5,61,0.00,CLR,,0.00,WeatherDisplay:10.37,2013-08-07 20:01:00,
2013-08-07 13:06:00,70.7,56.6,30.07,WNW,299,12.7,12.7,61,0.00,CLR,,0.00,WeatherDisplay:10.37,2013-08-07 20:06:00,
2013-08-07 13:11:00,70.7,57.0,30.07,NW,312,10.4,10.4,62,0.00,CLR,,0.00,WeatherDisplay:10.37,2013-08-07 20:11:00,
2013-08-07 13:16:00,71.1,57.0,30.07,NW,315,9.2,9.2,61,0.00,CLR,,0.00,WeatherDisplay:10.37,2013-08-07 20:16:00,
2013-08-07 13:21:00,71.6,57.0,30.07,NW,314,10.4,10.4,60,0.00,CLR,,0.00,WeatherDisplay:10.37,2013-08-07 20:21:00,
2013-08-07 13:26:00,72.5,57.8,30.07,NNW,333,6.9,6.9,60,0.00,CLR,,0.00,WeatherDisplay:10.37,2013-08-07 20:26:00,
2013-08-07 13:31:00,73.0,57.3,30.07,NW,312,4.6,4.6,58,0.00,CLR,,0.00,WeatherDisplay:10.37,2013-08-07 20:31:00,
2013-08-07 13:36:00,73.7,58.0,30.07,ESE,105,4.6,4.6,58,0.00,CLR,,0.00,WeatherDisplay:10.37,2013-08-07 20:36:00,
2013-08-07 13:41:00,74.5,57.8,30.07,NNW,338,6.0,6.0,56,0.00,CLR,,0.00,WeatherDisplay:10.37,2013-08-07 20:41:00,
2013-08-07 13:46:00,73.2,57.1,30.07,NW,304,9.2,9.2,57,0.00,CLR,,0.00,WeatherDisplay:10.37,2013-08-07 20:46:00,
2013-08-07 13:51:00,72.5,57.8,30.06,NNW,332,4.6,4.6,60,0.00,CLR,,0.00,WeatherDisplay:10.37,2013-08-07 20:51:00,
2013-08-07 13:56:00,73.1,57.9,30.06,West,270,3.5,3.5,59,0.00,CLR,,0.00,WeatherDisplay:10.37,2013-08-07 20:56:00,
2013-08-07 14:01:00,73.9,57.7,30.06,SW,218,5.8,5.8,57,0.00,CLR,,0.00,WeatherDisplay:10.37,2013-08-07 21:01:00,
2013-08-07 14:06:00,73.8,57.1,30.06,NW,307,8.1,8.1,56,0.00,CLR,,0.00,WeatherDisplay:10.37,2013-08-07 21:06:00,
2013-08-07 14:11:00,73.2,57.1,30.06,WNW,300,5.8,5.8,57,0.00,CLR,,0.00,WeatherDisplay:10.37,2013-08-07 21:11:00,
2013-08-07 14:16:00,73.1,57.9,30.06,WNW,298,9.2,9.2,59,0.00,CLR,,0.00,WeatherDisplay:10.37,2013-08-07 21:16:00,
2013-08-07 14:21:00,72.9,57.7,30.06,NNE,22,5.8,5.8,59,0.00,CLR,,0.00,WeatherDisplay:10.37,2013-08-07 21:21:00,
2013-08-07 14:26:00,73.3,57.1,30.05,WSW,257,4.6,4.6,57,0.00,CLR,,0.00,WeatherDisplay:10.37,2013-08-07 21:26:00,
2013-08-07 14:31:00,74.3,57.6,30.05,WNW,290,6.9,6.9,56,0.00,CLR,,0.00,WeatherDisplay:10.37,2013-08-07 21:31:00,
2013-08-07 14:36:00,74.1,57.4,30.05,NW,316,6.9,6.9,56,0.00,CLR,,0.00,WeatherDisplay:10.37,2013-08-07 21:36:00,
2013-08-07 14:41:00,73.3,57.6,30.05,NW,308,5.8,5.8,58,0.00,CLR,,0.00,WeatherDisplay:10.37,2013-08-07 21:41:00,
2013-08-07 14:46:00,73.6,57.9,30.05,North,350,4.6,4.6,58,0.00,CLR,,0.00,WeatherDisplay:10.37,2013-08-07 21:46:00,
2013-08-07 14:51:00,73.6,57.4,30.05,WSW,237,8.1,8.1,57,0.00,CLR,,0.00,WeatherDisplay:10.37,2013-08-07 21:51:00,
2013-08-07 14:56:00,75.0,58.7,30.05,NW,318,10.4,10.4,57,0.00,CLR,,0.00,WeatherDisplay:10.37,2013-08-07 21:56:00,
2013-08-07 15:01:00,74.9,58.1,30.04,NW,321,7.0,7.0,56,0.00,CLR,,0.00,WeatherDisplay:10.37,2013-08-07 22:01:00,
2013-08-07 15:06:00,74.4,58.2,30.04,NW,312,12.7,12.7,57,0.00,CLR,,0.00,WeatherDisplay:10.37,2013-08-07 22:06:00,
2013-08-07 15:11:00,74.8,58.1,30.04,WNW,287,9.2,9.2,56,0.00,CLR,,0.00,WeatherDisplay:10.37,2013-08-07 22:11:00,
2013-08-07 15:16:00,76.0,58.2,30.04,NW,314,6.9,6.9,54,0.00,CLR,,0.00,WeatherDisplay:10.37,2013-08-07 22:16:00,
2013-08-07 15:21:00,75.0,57.7,30.04,NW,319,6.9,6.9,55,0.00,CLR,,0.00,WeatherDisplay:10.37,2013-08-07 22:21:00,
2013-08-07 15:26:00,75.6,58.3,30.04,WNW,301,4.0,4.0,55,0.00,CLR,,0.00,WeatherDisplay:10.37,2013-08-07 22:26:00,
2013-08-07 15:31:00,75.9,58.1,30.04,West,266,5.8,5.8,54,0.00,CLR,,0.00,WeatherDisplay:10.37,2013-08-07 22:31:00,
2013-08-07 15:36:00,75.6,58.3,30.03,NW,326,6.9,6.9,55,0.00,CLR,,0.00,WeatherDisplay:10.37,2013-08-07 22:36:00,
2013-08-07 15:41:00,75.7,57.9,30.03,NW,315,4.6,4.6,54,0.00,CLR,,0.00,WeatherDisplay:10.37,2013-08-07 22:41:00,
2013-08-07 15:46:00,75.9,58.1,30.03,NW,304,7.0,7.0,54,0.00,CLR,,0.00,WeatherDisplay:10.37,2013-08-07 22:46:00,
2013-08-07 15:51:00,74.8,58.1,30.03,NW,308,5.8,5.8,56,0.00,CLR,,0.00,WeatherDisplay:10.37,2013-08-07 22:51:00,
2013-08-07 15:56:00,74.9,58.6,30.03,NW,308,3.5,3.5,57,0.00,CLR,,0.00,WeatherDisplay:10.37,2013-08-07 22:56:00,
2013-08-07 16:01:00,75.4,58.6,30.03,WNW,293,4.6,4.6,56,0.00,CLR,,0.00,WeatherDisplay:10.37,2013-08-07 23:01:00,
2013-08-07 16:06:00,74.9,58.6,30.03,NNW,341,8.1,8.1,57,0.00,CLR,,0.00,WeatherDisplay:10.37,2013-08-07 23:06:00,
2013-08-07 16:11:00,75.5,58.7,30.03,SW,224,6.9,6.9,56,0.00,CLR,,0.00,WeatherDisplay:10.37,2013-08-07 23:11:00,
2013-08-07 16:16:00,75.4,58.1,30.03,WSW,242,8.0,8.0,55,0.00,CLR,,0.00,WeatherDisplay:10.37,2013-08-07 23:16:00,
2013-08-07 16:21:00,75.1,58.3,30.02,WNW,301,8.1,8.1,56,0.00,CLR,,0.00,WeatherDisplay:10.37,2013-08-07 23:21:00,
2013-08-07 16:26:00,74.6,58.4,30.02,West,278,5.8,5.8,57,0.00,CLR,,0.00,WeatherDisplay:10.37,2013-08-07 23:26:00,
2013-08-07 16:31:00,74.0,58.3,30.02,West,263,5.8,5.8,58,0.00,CLR,,0.00,WeatherDisplay:10.37,2013-08-07 23:31:00,
2013-08-07 16:36:00,74.0,58.3,30.02,West,271,9.2,9.2,58,0.00,CLR,,0.00,WeatherDisplay:10.37,2013-08-07 23:36:00,
2013-08-07 16:41:00,73.8,58.1,30.02,SW,235,7.0,7.0,58,0.00,CLR,,0.00,WeatherDisplay:10.37,2013-08-07 23:41:00,
2013-08-07 16:46:00,73.5,57.8,30.02,North,358,5.8,5.8,58,0.00,CLR,,0.00,WeatherDisplay:10.37,2013-08-07 23:46:00,
2013-08-07 16:51:00,73.0,57.8,30.02,West,273,10.4,10.4,59,0.00,CLR,,0.00,WeatherDisplay:10.37,2013-08-07 23:51:00,
2013-08-07 16:56:00,73.1,57.4,30.02,WNW,283,12.7,12.7,58,0.00,CLR,,0.00,WeatherDisplay:10.37,2013-08-07 23:56:00,
2013-08-07 17:01:00,72.8,58.1,30.02,West,259,5.8,5.8,60,0.00,CLR,,0.00,WeatherDisplay:10.37,2013-08-08 00:01:00,
2013-08-07 17:06:00,72.8,57.6,30.02,WSW,239,4.6,4.6,59,0.00,CLR,,0.00,WeatherDisplay:10.37,2013-08-08 00:06:00,
2013-08-07 17:11:00,72.7,57.5,30.02,NNW,332,11.5,11.5,59,0.00,CLR,,0.00,WeatherDisplay:10.37,2013-08-08 00:11:00,
2013-08-07 17:16:00,72.3,57.6,30.02,WNW,300,3.5,3.5,60,0.00,CLR,,0.00,WeatherDisplay:10.37,2013-08-08 00:16:00,
2013-08-07 17:21:00,72.3,58.1,30.02,WSW,255,4.6,4.6,61,0.00,CLR,,0.00,WeatherDisplay:10.37,2013-08-08 00:21:00,
2013-08-07 17:26:00,72.7,58.0,30.02,South,173,5.0,5.0,60,0.00,CLR,,0.00,WeatherDisplay:10.37,2013-08-08 00:26:00,
2013-08-07 17:31:00,72.6,57.9,30.02,WNW,291,4.6,4.6,60,0.00,CLR,,0.00,WeatherDisplay:10.37,2013-08-08 00:31:00,
2013-08-07 17:36:00,72.1,57.0,30.02,NNW,329,10.4,10.4,59,0.00,CLR,,0.00,WeatherDisplay:10.37,2013-08-08 00:36:00,
2013-08-07 17:41:00,71.7,57.5,30.02,NNW,328,8.1,8.1,61,0.00,CLR,,0.00,WeatherDisplay:10.37,2013-08-08 00:41:00,
2013-08-07 17:46:00,71.5,57.3,30.02,West,277,8.0,8.0,61,0.00,CLR,,0.00,WeatherDisplay:10.37,2013-08-08 00:46:00,
2013-08-07 17:51:00,71.3,57.2,30.02,North,4,10.4,10.4,61,0.00,CLR,,0.00,WeatherDisplay:10.37,2013-08-08 00:51:00,
2013-08-07 17:56:00,71.1,57.4,30.02,West,267,3.5,3.5,62,0.00,CLR,,0.00,WeatherDisplay:10.37,2013-08-08 00:56:00,
2013-08-07 18:01:00,71.1,57.4,30.02,West,273,3.5,3.5,62,0.00,CLR,,0.00,WeatherDisplay:10.37,2013-08-08 01:01:00,
2013-08-07 18:06:00,70.7,57.0,30.02,West,278,6.9,6.9,62,0.00,CLR,,0.00,WeatherDisplay:10.37,2013-08-08 01:06:00,
2013-08-07 18:11:00,70.8,57.1,30.02,WNW,284,6.9,6.9,62,0.00,CLR,,0.00,WeatherDisplay:10.37,2013-08-08 01:11:00,
2013-08-07 18:16:00,70.5,56.9,30.01,West,269,9.2,9.2,62,0.00,CLR,,0.00,WeatherDisplay:10.37,2013-08-08 01:16:00,
2013-08-07 18:21:00,70.4,57.2,30.01,South,172,9.2,9.2,63,0.00,CLR,,0.00,WeatherDisplay:10.37,2013-08-08 01:21:00,
2013-08-07 18:26:00,70.4,57.2,30.01,NW,309,6.9,6.9,63,0.00,CLR,,0.00,WeatherDisplay:10.37,2013-08-08 01:26:00,
2013-08-07 18:31:00,69.9,56.7,30.02,SSW,211,6.9,6.9,63,0.00,CLR,,0.00,WeatherDisplay:10.37,2013-08-08 01:31:00,
2013-08-07 18:32:00,69.9,57.2,30.01,NW,307,3.5,3.5,64,0.00,CLR,,0.00,WeatherDisplay:10.37,2013-08-08 01:32:00,
2013-08-07 18:37:00,69.8,57.1,30.02,WNW,284,5.8,5.8,64,0.00,CLR,,0.00,WeatherDisplay:10.37,2013-08-08 01:37:00,
2013-08-07 18:42:00,69.7,57.0,30.02,WNW,298,12.7,12.7,64,0.00,CLR,,0.00,WeatherDisplay:10.37,2013-08-08 01:42:00,
2013-08-07 18:47:00,69.2,56.5,30.02,WSW,256,6.9,6.9,64,0.00,CLR,,0.00,WeatherDisplay:10.37,2013-08-08 01:47:00,
2013-08-07 18:52:00,69.0,56.3,30.02,WNW,298,5.0,5.0,64,0.00,CLR,,0.00,WeatherDisplay:10.37,2013-08-08 01:52:00,
2013-08-07 18:57:00,68.8,56.6,30.01,WNW,288,2.3,2.3,65,0.00,CLR,,0.00,WeatherDisplay:10.37,2013-08-08 01:57:00,
2013-08-07 19:02:00,68.4,56.2,30.01,SSW,207,8.1,8.1,65,0.00,CLR,,0.00,WeatherDisplay:10.37,2013-08-08 02:02:00,
2013-08-07 19:08:00,68.2,56.4,30.02,West,264,3.5,3.5,66,0.00,CLR,,0.00,WeatherDisplay:10.37,2013-08-08 02:08:00,
2013-08-07 19:13:00,67.9,56.5,30.02,North,349,8.1,8.1,67,0.00,CLR,,0.00,WeatherDisplay:10.37,2013-08-08 02:13:00,
2013-08-07 19:18:00,67.5,56.2,30.02,West,266,3.5,3.5,67,0.00,CLR,,0.00,WeatherDisplay:10.37,2013-08-08 02:18:00,
2013-08-07 19:23:00,67.3,56.4,30.02,WNW,300,3.5,3.5,68,0.00,CLR,,0.00,WeatherDisplay:10.37,2013-08-08 02:23:00,
2013-08-07 19:28:00,67.1,56.2,30.02,WSW,252,2.3,2.3,68,0.00,CLR,,0.00,WeatherDisplay:10.37,2013-08-08 02:28:00,
2013-08-07 19:33:00,66.9,56.4,30.02,WSW,255,3.5,3.5,69,0.00,CLR,,0.00,WeatherDisplay:10.37,2013-08-08 02:33:00,
2013-08-07 19:38:00,66.7,56.2,30.02,West,264,2.3,2.3,69,0.00,CLR,,0.00,WeatherDisplay:10.37,2013-08-08 02:38:00,
2013-08-07 19:43:00,66.4,56.3,30.02,WNW,294,5.8,5.8,70,0.00,CLR,,0.00,WeatherDisplay:10.37,2013-08-08 02:43:00,
2013-08-07 19:48:00,66.2,56.1,30.02,WSW,243,5.8,5.8,70,0.00,CLR,,0.00,WeatherDisplay:10.37,2013-08-08 02:48:00,
2013-08-07 19:53:00,66.0,55.9,30.02,WSW,248,3.5,3.5,70,0.00,CLR,,0.00,WeatherDisplay:10.37,2013-08-08 02:53:00,
2013-08-07 19:58:00,65.7,56.0,30.02,WNW,283,3.5,3.5,71,0.00,CLR,,0.00,WeatherDisplay:10.37,2013-08-08 02:58:00,
2013-08-07 20:03:00,65.4,55.7,30.01,WNW,285,3.0,3.0,71,0.00,CLR,,0.00,WeatherDisplay:10.37,2013-08-08 03:03:00,
2013-08-07 20:08:00,65.2,55.6,30.01,West,275,4.6,4.6,71,0.00,CLR,,0.00,WeatherDisplay:10.37,2013-08-08 03:08:00,
2013-08-07 20:13:00,64.9,55.7,30.02,West,276,3.5,3.5,72,0.00,CLR,,0.00,WeatherDisplay:10.37,2013-08-08 03:13:00,
2013-08-07 20:18:00,64.7,55.5,30.02,WNW,301,3.5,3.5,72,0.00,CLR,,0.00,WeatherDisplay:10.37,2013-08-08 03:18:00,
2013-08-07 20:23:00,64.5,55.7,30.02,NE,50,5.8,5.8,73,0.00,CLR,,0.00,WeatherDisplay:10.37,2013-08-08 03:23:00,
2013-08-07 20:28:00,64.3,55.5,30.02,WNW,293,3.5,3.5,73,0.00,CLR,,0.00,WeatherDisplay:10.37,2013-08-08 03:28:00,
2013-08-07 20:33:00,64.1,55.6,30.02,SW,226,5.8,5.8,74,0.00,CLR,,0.00,WeatherDisplay:10.37,2013-08-08 03:33:00,
2013-08-07 20:38:00,63.8,55.4,30.02,West,266,3.5,3.5,74,0.00,CLR,,0.00,WeatherDisplay:10.37,2013-08-08 03:38:00,
2013-08-07 20:43:00,63.5,55.4,30.02,SE,138,3.5,3.5,75,0.00,CLR,,0.00,WeatherDisplay:10.37,2013-08-08 03:43:00,
2013-08-07 20:48:00,63.3,55.2,30.02,WSW,257,3.5,3.5,75,0.00,CLR,,0.00,WeatherDisplay:10.37,2013-08-08 03:48:00,
2013-08-07 20:53:00,63.2,55.5,30.02,WSW,248,1.2,1.2,76,0.00,CLR,,0.00,WeatherDisplay:10.37,2013-08-08 03:53:00,
2013-08-07 20:58:00,63.0,55.3,30.02,NNE,25,3.5,3.5,76,0.00,CLR,,0.00,WeatherDisplay:10.37,2013-08-08 03:58:00,
2013-08-07 21:01:00,62.8,55.1,30.02,WSW,252,3.5,3.5,76,0.00,CLR,,0.00,WeatherDisplay:10.37,2013-08-08 04:01:00,
2013-08-07 21:02:00,62.8,55.1,30.02,South,184,3.5,3.5,76,0.00,CLR,,0.00,WeatherDisplay:10.37,2013-08-08 04:02:00,
2013-08-07 21:03:00,62.8,55.1,30.02,WSW,253,3.5,3.5,76,0.00,CLR,,0.00,WeatherDisplay:10.37,2013-08-08 04:03:00,
2013-08-07 21:08:00,62.6,54.9,30.03,SW,224,1.0,1.0,76,0.00,CLR,,0.00,WeatherDisplay:10.37,2013-08-08 04:08:00,
2013-08-07 21:13:00,62.2,54.9,30.03,NE,46,3.5,3.5,77,0.00,CLR,,0.00,WeatherDisplay:10.37,2013-08-08 04:13:00,
2013-08-07 21:18:00,61.9,55.0,30.03,ENE,58,1.2,1.2,78,0.00,CLR,,0.00,WeatherDisplay:10.37,2013-08-08 04:18:00,
2013-08-07 21:23:00,61.7,54.8,30.03,NE,34,1.2,0.0,78,0.00,CLR,,0.00,WeatherDisplay:10.37,2013-08-08 04:23:00,
2013-08-07 21:28:00,61.6,55.0,30.03,NNW,338,2.3,2.3,79,0.00,CLR,,0.00,WeatherDisplay:10.37,2013-08-08 04:28:00,
2013-08-07 21:33:00,61.6,55.0,30.03,NNE,17,2.0,2.0,79,0.00,CLR,,0.00,WeatherDisplay:10.37,2013-08-08 04:33:00,
2013-08-07 21:38:00,61.4,54.8,30.04,NNW,332,2.0,2.0,79,0.00,CLR,,0.00,WeatherDisplay:10.37,2013-08-08 04:38:00,
2013-08-07 21:43:00,61.3,54.7,30.04,North,8,3.5,3.5,79,0.00,CLR,,0.00,WeatherDisplay:10.37,2013-08-08 04:43:00,
2013-08-07 21:48:00,60.9,54.3,30.04,North,359,2.3,2.3,79,0.00,CLR,,0.00,WeatherDisplay:10.37,2013-08-08 04:48:00,
2013-08-07 21:53:00,60.5,54.3,30.04,NNE,18,2.3,2.3,80,0.00,CLR,,0.00,WeatherDisplay:10.37,2013-08-08 04:53:00,
2013-08-07 21:58:00,60.3,54.4,30.04,NNE,17,0.0,0.0,81,0.00,CLR,,0.00,WeatherDisplay:10.37,2013-08-08 04:58:00,
2013-08-07 22:03:00,60.0,54.2,30.04,SW,231,1.0,1.0,81,0.00,CLR,,0.00,WeatherDisplay:10.37,2013-08-08 05:03:00,
2013-08-07 22:08:00,60.1,54.6,30.04,SW,236,2.3,2.3,82,0.00,CLR,,0.00,WeatherDisplay:10.37,2013-08-08 05:08:00,
2013-08-07 22:13:00,60.3,54.4,30.04,SW,229,1.2,1.2,81,0.00,CLR,,0.00,WeatherDisplay:10.37,2013-08-08 05:13:00,
2013-08-07 22:18:00,60.3,54.4,30.04,SW,236,0.0,0.0,81,0.00,CLR,,0.00,WeatherDisplay:10.37,2013-08-08 05:18:00,
2013-08-07 22:23:00,59.9,54.1,30.04,SW,236,0.0,0.0,81,0.00,CLR,,0.00,WeatherDisplay:10.37,2013-08-08 05:23:00,
2013-08-07 22:28:00,59.6,54.1,30.04,SW,236,2.3,2.3,82,0.00,CLR,,0.00,WeatherDisplay:10.37,2013-08-08 05:28:00,
2013-08-07 22:33:00,59.4,53.9,30.04,WSW,238,1.2,0.0,82,0.00,CLR,,0.00,WeatherDisplay:10.37,2013-08-08 05:33:00,
2013-08-07 22:38:00,58.8,53.6,30.04,NNE,19,1.2,1.2,83,0.00,CLR,,0.00,WeatherDisplay:10.37,2013-08-08 05:38:00,
2013-08-07 22:43:00,58.7,53.9,30.03,NW,318,1.2,1.2,84,0.00,CLR,,0.00,WeatherDisplay:10.37,2013-08-08 05:43:00,
2013-08-07 22:48:00,58.8,54.0,30.03,NW,318,2.3,2.3,84,0.00,CLR,,0.00,WeatherDisplay:10.37,2013-08-08 05:48:00,
2013-08-07 22:53:00,58.8,54.0,30.03,NNW,338,1.0,1.0,84,0.00,CLR,,0.00,WeatherDisplay:10.37,2013-08-08 05:53:00,
2013-08-07 22:58:00,58.7,53.9,30.03,NNW,327,3.5,3.5,84,0.00,CLR,,0.00,WeatherDisplay:10.37,2013-08-08 05:58:00,
2013-08-07 23:03:00,58.6,53.8,30.03,NNW,338,3.5,3.5,84,0.00,CLR,,0.00,WeatherDisplay:10.37,2013-08-08 06:03:00,
2013-08-07 23:08:00,58.4,53.6,30.04,North,4,2.3,2.3,84,0.00,CLR,,0.00,WeatherDisplay:10.37,2013-08-08 06:08:00,
2013-08-07 23:13:00,58.2,53.7,30.03,WNW,294,2.0,2.0,85,0.00,CLR,,0.00,WeatherDisplay:10.37,2013-08-08 06:13:00,
2013-08-07 23:18:00,58.5,54.0,30.03,North,356,3.5,3.5,85,0.00,CLR,,0.00,WeatherDisplay:10.37,2013-08-08 06:18:00,
2013-08-07 23:23:00,58.8,54.3,30.03,West,277,1.2,1.2,85,0.00,CLR,,0.00,WeatherDisplay:10.37,2013-08-08 06:23:00,
2013-08-07 23:28:00,58.8,54.3,30.03,West,278,3.5,3.5,85,0.00,CLR,,0.00,WeatherDisplay:10.37,2013-08-08 06:28:00,
2013-08-07 23:33:00,58.7,54.2,30.04,SW,226,0.0,0.0,85,0.00,CLR,,0.00,WeatherDisplay:10.37,2013-08-08 06:33:00,
2013-08-07 23:38:00,58.5,54.0,30.04,WSW,253,1.2,1.2,85,0.00,CLR,,0.00,WeatherDisplay:10.37,2013-08-08 06:38:00,
2013-08-07 23:43:00,58.5,54.0,30.04,NW,310,1.2,1.2,85,0.00,CLR,,0.00,WeatherDisplay:10.37,2013-08-08 06:43:00,
2013-08-07 23:48:00,58.2,53.7,30.04,NW,310,0.0,0.0,85,0.00,CLR,,0.00,WeatherDisplay:10.37,2013-08-08 06:48:00,
2013-08-07 23:53:00,58.0,53.8,30.04,West,271,0.0,0.0,86,0.00,CLR,,0.00,WeatherDisplay:10.37,2013-08-08 06:53:00,
2013-08-07 23:58:00,57.8,53.6,30.04,North,5,0.0,0.0,86,0.00,CLR,,0.00,WeatherDisplay:10.37,2013-08-08 06:58:00,